Location: Chemnitz
(49.5500°N, 11.5830°E)
Time: 16:27:24
(UTC+01:00)

ISS - Pass Details

Date: 18 November 2017
Orbit: 402 x 407 km, 51.6° (Epoch: 22 November)

Event Time Altitude Azimuth Distance (km) Brightness Sun altitude
Exits shadow 05:31:17 10° 194° (SSW) 1,450 -1.1 -18.9°
Drops below altitude 10° 05:31:18 10° 193° (SSW) 1,455 -1.1 -18.9°
Sets 05:34:11 0° 165° (SSE) 2,302 0.3 -18.5°
